Regional Weather Roundup
Issued by NWS

Home | Current Version | Previous Version | Graphics & Text | Print | Product List | Glossary Off
Versions: 1 2 3 4 5 6 7 8 9 10 11 12 13 14 15 16 17 18 19 20 21 22 23 24 25 26 27 28 29 30 31 32 33 34 35 36 37 38 39 40 41 42 43 44 45 46 47 48 49 50

000
ASUS43 KMKX 101659
RWRWI

WISCONSIN REGIONAL WEATHER ROUNDUP
NATIONAL WEATHER SERVICE MILWAUKEE/SULLIVAN WI
1100 AM CST SUN DEC 10 2017

NOTE: "FAIR" INDICATES FEW OR NO CLOUDS BELOW 12,000 FEET WITH NO
SIGNIFICANT WEATHER AND/OR OBSTRUCTIONS TO VISIBILITY.

WIZ001-002-006>008-014>016-023>028-101800-
NORTHWEST WISCONSIN

CITY           SKY/WX    TMP DP  RH WIND       PRES   REMARKS
SUPERIOR ARPT  CLOUDY    23  14  68 N10       30.00R WCI  12
ASHLAND        CLOUDY    21  14  74 N10       29.97R WCI  10
HAYWARD        CLOUDY    22  16  78 VRB6      29.93R WCI  14
SIREN          CLOUDY    25  17  72 N9G16     29.97R WCI  16
CUMBERLAND     CLOUDY    23  18  80 NW9       29.95R WCI  13
RICE LAKE      CLOUDY    25  18  77 CALM      29.97R
CHETEK         CLOUDY    24  19  80 N5        29.95R WCI  18
LADYSMITH      CLOUDY    23  18  83 NW6       29.93R WCI  15
EAU CLAIRE     CLOUDY    25  18  74 NW9       29.96R WCI  15
MENOMONIE      CLOUDY    26  19  75 NW8       29.96R WCI  18
NEW RICHMOND   CLOUDY    25  19  78 NW10      29.99R WCI  15
OSCEOLA        CLOUDY    27  20  77 NW6       30.01R WCI  20
$$

WIZ003>005-009-010-017-018-101800-
NORTH CENTRAL WISCONSIN

CITY           SKY/WX    TMP DP  RH WIND       PRES   REMARKS
MANITOWISH WTR FLURRIES  19  19 100 NW8       29.84R WCI   9
ARBOR VITAE    FLURRIES  22  20  93 NW5       29.84R WCI  15
WOODRUFF       FLURRIES  22  20  93 NW5       29.84R WCI  15
RHINELANDER    CLOUDY    20  18  92 NW5       29.84R WCI  13
EAGLE RIVER    LGT SNOW  19  18  98 NW8       29.83R WCI   8
LAND O LAKES   LGT SNOW  19  16  87 N6        29.85R WCI  11
PHILLIPS       CLOUDY    19  18  96 W3        29.87R
TOMAHAWK       CLOUDY    20  18  91 NW6       29.87R WCI  12
MEDFORD        CLOUDY    20  17  89 NW6       29.88R WCI  12
MERRILL        CLOUDY    21  19  91 N6        29.87R WCI  13
$$

WIZ029-030-035-036-043>047-101800-
CENTRAL WISCONSIN

CITY           SKY/WX    TMP DP  RH WIND       PRES   REMARKS
WAUSAU         CLOUDY    22  18  85 NW7       29.86R WCI  13
MOSINEE        CLOUDY    21  19  93 NW7       29.88R WCI  13
MARSHFIELD     CLOUDY    22  18  85 NW12      29.88R WCI  10
STEVENS POINT  CLOUDY    21  17  84 NW5       29.89R WCI  14
WAUPACA        CLOUDY    26  19  74 NW8       29.89R WCI  17
WAUTOMA        CLOUDY    26  18  71 N10       29.90R WCI  16
WISC RAPIDS    CLOUDY    24  18  77 N8        29.91S WCI  15
CAMP DOUGLAS   NOT AVBL
$$

WIZ011>013-019>022-031-037>040-048>050-101800-
NORTHEAST WISCONSIN

CITY           SKY/WX    TMP DP  RH WIND       PRES   REMARKS
ANTIGO         CLOUDY    19  18  95 N7        29.84R WCI  10
SHAWANO        CLOUDY    24  18  77 NW6       29.88R WCI  17
OCONTO         CLOUDY    21  15  78 NW6       29.87S WCI  13
STURGEON BAY   CLOUDY    23  17  78 NW9       29.86S WCI  13
GREEN BAY      CLOUDY    23  18  81 NW12      29.88R WCI  12
MANITOWOC      CLOUDY    23  18  81 NW9       29.87S WCI  13
APPLETON       CLOUDY    21  16  79 NW8       29.86R WCI  12
CLINTONVILLE   CLOUDY    23  18  80 NW8       29.88R WCI  14
OSHKOSH        CLOUDY    24  18  77 NW10      29.88R WCI  14
$$

WIZ032>034-041-042-053>061-101800-
SOUTHWEST WISCONSIN

CITY           SKY/WX    TMP DP  RH WIND       PRES   REMARKS
LA CROSSE      CLOUDY    29  21  72 N8        29.95R WCI  21
SPARTA         CLOUDY    27  20  77 N9        29.94R WCI  17
VIROQUA        CLOUDY    26  22  87 N9        29.90R WCI  16
BOSCOBEL       CLOUDY    29  20  69 NW7       29.94R WCI  22
PRAIRIE DU CHI CLOUDY    28  19  69 NW6       29.94S WCI  22
PLATTEVILLE    MOSUNNY   29  23  78 N10       29.90S WCI  20
$$

WIZ056-057-062-063-064-067-068-101800-
SOUTH CENTRAL WISCONSIN

CITY           SKY/WX    TMP DP  RH WIND       PRES   REMARKS
REEDSBURG      CLOUDY    26  19  74 N5        29.90R WCI  20
BARABOO/DELLS  CLOUDY    26  19  74 NW7       29.89R WCI  18
LONE ROCK      CLOUDY    27  20  75 NW6       29.92R WCI  20
MINERAL POINT  CLOUDY    28  25  86 NW8       29.88S WCI  20
MADISON        CLOUDY    26  18  71 NW10      29.89R WCI  16
MIDDLETON      CLOUDY    28  20  73 NW9       29.89S WCI  19
WATERTOWN      CLOUDY    24  19  80 W7        29.88R WCI  16
MONROE         CLOUDY    28  19  69 NW7       29.88R WCI  21
JANESVILLE     CLOUDY    28  19  69 W10       29.88S WCI  19
$$

WIZ051-052-058>065-066-070>072-101800-
SOUTHEAST WISCONSIN

CITY           SKY/WX    TMP DP  RH WIND       PRES   REMARKS
MILWAUKEE      CLOUDY    27  18  69 W10       29.87S WCI  17
WAUKESHA       CLOUDY    23  18  80 W10       29.88S WCI  12
MILWAUKEE/TIMM CLOUDY    27  16  63 W10       29.88S WCI  17
RACINE         CLOUDY    27  18  69 W13G21    29.88F WCI  16
BURLINGTON     CLOUDY    35  31  85 W10       29.88S WCI  27
KENOSHA        CLOUDY    28  18  66 W12       29.87F WCI  18
FOND DU LAC    CLOUDY    25  17  72 NW13      29.88R WCI  14
SHEBOYGAN      CLOUDY    24  20  84 NW9       29.86S WCI  14
WEST BEND      CLOUDY    25  19  80 W8        29.86S WCI  16
JUNEAU         CLOUDY    24  17  77 NW6       29.88S WCI  16
$$

LSZ147-162-101800-
LAKE SUPERIOR

STATION/POSITION TIME  TEMP    WIND        PRES    WAVE
                       AIR SEA DIR/SP/G            HT/PER
                 (UTC) (F)     (DEG/KT/KT) (MB)    (FT/S)
DEVILS ISLAND    1600   20     350/ 15/ 16 1015.8R
SAXON HARBOR     1640   24                 1013.9R
$$

LMZ867-665-643>646-101800-
LAKE MICHIGAN

STATION/POSITION TIME  TEMP    WIND        PRES    WAVE
                       AIR SEA DIR/SP/G            HT/PER
                 (UTC) (F)     (DEG/KT/KT) (MB)    (FT/S)
NORTHPORT PIER   1640   24     300/  4/ 12 1010.5F
KEWAUNEE LAKESHO 1630   21     290/  7/ 10 1010.3F
SHEBOYGAN LAKESH 1600   24     280/ 12/ 14 1012.4R
PORT WASHINGTON  1640   26     290/  9/ 16 1012.2F
MILWAUKEE LAKESH 1630   26     280/ 11/ 13   N/A
KENOSHA   LAKESH 1600   27     260/ 15/ 19 1012.5
$$

TC  - TEMPERATURE IN CELSIUS
VSB - VISIBILITY IN STATUTE MILES
WCI - WIND CHILL INDEX
HX  - HEAT INDEX





USA.gov is the U.S. government's official web portal to all federal, state and local government web resources and services.